RH
92 89 87 94 96 97 98 76 52 49 56 55 49 53 51 54 58 70 94 84 78 76 72 79 78 78 81 88 82 52 65 72 78 80 57 57 52 53 47 46 39 33 34 29 27 28 26
98 99 94 95 94 98 97 84 48 46 48 55 57 49 50 54 57 64 75 78 87 93 87 81 78 78 76 81 50 41 65 65 76 74 57 56 50 44 40 38 36 37 31 28 26 26 28
96 95 93 92 91 99 97 94 70 51 43 46 49 51 47 53 55 55 61 78 80 79 84 87 91 80 65 73 40 37 41 72 74 70 60 54 47 32 32 34 32 32 31 27 27 26 28
98 96 100 98 99 99 99 100 76 94 49 42 42 48 51 46 54 58 64 64 59 65 82 75 69 81 83 56 50 35 38 40 50 47 54 44 47 44 29 29 32 33 35 36 28 27 30
96 95 96 99 99 98 98 98 100 63 82 47 43 44 48 47 47 48 56 60 60 67 67 76 69 66 69 38 43 39 36 36 36 41 50 47 32 36 30 40 43 39 46 34 28 30 30
69 84 92 93 93 97 99 99 99 98 63 44 44 43 45 45 43 45 46 49 52 60 58 64 77 69 43 43 36 36 35 36 38 43 36 33 46 44 45 52 56 41 36 32 27 31 34
64 71 60 72 93 95 95 99 99 98 53 37 38 40 45 46 49 47 50 53 60 58 59 59 54 54 42 39 39 36 33 36 32 32 46 40 56 52 37 35 37 33 25 29 33 34 33
69 62 60 64 94 97 99 99 98 98 79 30 32 37 45 46 48 48 56 65 59 52 68 54 55 51 41 39 44 41 34 38 35 47 40 47 49 42 38 32 31 26 24 26 32 31 30
65 71 47 53 60 74 98 100 98 99 68 32 36 40 41 44 51 54 53 61 51 49 64 53 47 43 38 38 43 40 36 37 36 36 38 52 46 42 35 33 34 37 27 27 27 31 30
42 55 58 52 61 66 74 96 99 100 50 36 40 41 40 47 57 55 58 58 55 52 74 39 40 34 36 36 39 34 36 34 42 47 49 53 50 35 40 43 35 29 42 35 36 31 36
59 57 79 59 64 64 70 84 100 85 35 37 40 42 40 50 59 54 53 54 51 46 69 34 38 30 34 34 36 33 36 39 44 52 41 53 53 42 38 44 45 33 41 42 36 41 34
72 65 59 64 58 59 65 63 89 72 29 36 47 44 41 46 54 55 50 49 50 67 57 44 39 38 33 35 34 35 35 43 47 50 54 59 52 57 49 50 46 55 47 56 56 51 53
63 71 67 57 58 56 60 60 48 48 33 32 38 47 50 50 58 55 54 54 74 68 39 39 48 42 36 37 35 34 39 45 44 54 64 46 52 54 54 46 43 38 48 69 50 60 52
65 64 65 60 58 57 56 49 44 44 38 28 30 37 44 49 52 47 52 48 55 43 49 48 45 35 34 32 34 37 35 42 42 48 62 61 52 57 61 50 42 47 36 62 31 50 50
70 71 68 60 57 56 56 48 45 46 38 35 26 45 42 44 58 55 54 80 52 50 56 57 39 31 33 31 33 39 44 41 39 41 37 44 59 60 60 55 43 36 47 40 58 50 46
74 68 68 62 57 53 51 42 43 40 42 41 46 48 51 43 54 48 70 69 61 57 50 53 36 32 31 31 33 33 41 45 42 35 36 45 60 59 60 53 47 35 38 41 60 24 25
72 71 66 59 54 54 44 44 38 37 46 45 50 50 58 46 50 66 75 61 54 43 47 48 43 36 32 30 32 43 44 49 51 44 34 37 43 58 57 57 54 50 46 49 41 35 25
74 69 68 57 49 47 42 42 38 37 42 57 57 50 66 52 52 82 65 54 50 43 41 43 40 38 32 34 36 44 44 46 54 49 32 34 51 76 44 50 49 45 40 43 47 30 46
74 71 65 56 47 41 35 30 30 35 44 49 67 68 51 43 37 56 55 44 42 39 38 39 33 38 32 33 33 46 51 54 54 45 35 31 32 52 32 35 40 54 55 41 48 52 50
73 71 70 60 47 39 33 27 22 31 37 42 51 49 57 72 63 43 35 38 31 40 36 38 32 30 28 28 36 45 48 54 56 47 50 37 38 25 35 24 40 48 52 52 42 67 41
77 74 70 65 48 35 27 27 20 21 31 43 70 63 63 50 58 50 39 35 37 35 34 35 27 28 26 22 24 34 46 43 47 55 48 32 23 38 36 34 42 35 31 61 55 46 38
80 78 74 66 50 30 24 28 23 21 30 42 43 50 78 68 66 53 57 44 45 42 42 40 36 31 33 24 20 23 35 38 29 49 44 50 26 49 32 59 42 40 39 45 59 53 49
79 78 77 67 51 26 24 30 26 23 33 49 75 73 57 64 60 53 55 45 45 45 43 43 42 48 45 38 40 42 35 37 35 42 48 44 56 61 53 70 69 63 69 52 42 49 43
78 76 77 72 52 21 28 42 54 45 46 54 68 70 58 41 64 56 55 52 50 48 51 48 47 48 48 51 53 56 56 56 51 48 50 55 60 68 75 62 64 40 52 55 48 44 45
78 79 82 76 57 20 53 53 56 60 60 54 70 70 67 48 62 57 58 56 58 57 58 56 51 53 57 56 66 65 74 69 70 69 55 57 66 69 68 81 61 41 56 58 56 54 54
76 81 86 84 65 25 63 59 54 60 65 67 69 76 75 58 44 53 60 60 69 72 66 62 57 59 62 77 73 59 58 61 76 78 71 70 67 64 85 80 74 48 44 38 44 63 65
79 79 84 89 72 29 52 57 51 51 60 69 83 75 77 78 66 63 69 66 68 72 72 73 64 64 63 83 80 82 70 65 71 82 89 77 75 76 83 91 77 59 51 45 61 58 69
80 80 80 86 82 36 49 52 49 44 46 66 82 83 75 88 83 75 66 71 78 75 70 69 72 77 86 82 82 79 88 78 74 71 81 83 89 87 85 88 86 61 48 56 62 78 74
77 81 81 84 86 50 54 55 54 50 46 54 78 93 89 85 70 78 76 73 69 63 71 80 70 76 76 83 89 88 89 89 82 81 74 77 70 76 72 71 67 76 65 78 80 76 81
Wind_Speed
14 14 12 13 11 9 7 5 4 4 4 5 8 9 11 11 14 19 14 7 7 3 0 3 7 10 12 1 6 7 8 11 17 10 6 3 4 4 4 4 5 2 2 2 2 4 3
13 14 14 14 13 12 9 8 6 6 7 7 7 7 7 8 13 20 17 10 11 11 9 7 7 12 3 3 3 4 5 12 16 11 6 5 5 4 2 3 5 5 3 2 3 2 2
13 13 14 15 14 13 11 10 7 7 8 8 8 7 5 2 6 12 17 11 10 9 10 9 7 8 1 8 1 1 1 5 7 8 3 6 2 1 1 3 3 5 4 3 3 3 2
12 13 14 14 15 15 14 12 9 8 8 9 8 7 6 3 3 4 7 7 10 11 9 10 4 3 4 4 5 2 4 3 5 6 7 3 5 1 1 3 5 4 5 4 2 1 5
12 14 14 15 16 16 16 14 12 8 7 8 9 7 6 6 4 3 5 7 9 6 4 6 6 3 6 2 3 3 6 4 5 5 7 5 2 1 3 5 5 6 4 3 1 0 1
13 14 15 16 16 17 17 16 13 11 7 7 7 7 5 5 5 3 3 4 5 5 3 2 3 3 3 2 1 3 5 7 3 3 1 2 4 3 3 3 6 5 5 1 2 1 2
13 14 15 17 17 18 19 18 15 11 7 7 7 6 6 5 5 4 1 1 4 2 1 4 2 4 3 2 3 1 4 4 4 1 3 1 5 3 5 5 5 6 5 4 1 1 3
12 14 15 17 18 19 20 20 16 12 7 5 7 7 5 5 4 4 2 5 2 5 4 5 5 4 5 1 3 2 7 2 3 3 3 5 3 2 4 4 6 4 4 2 1 1 2
12 13 15 17 20 21 21 21 19 14 6 3 5 6 6 4 3 4 3 4 7 6 2 4 3 3 3 3 3 2 5 2 4 2 1 5 3 1 3 2 5 3 4 3 2 1 2
12 14 16 17 20 23 24 23 20 15 5 1 4 4 2 3 4 3 2 5 5 6 3 3 2 1 2 3 3 0 2 1 5 4 3 5 3 2 4 4 2 3 1 2 5 3 3
13 14 16 17 19 21 24 25 21 15 3 2 3 3 3 7 0 2 1 4 4 2 5 6 4 0 1 2 5 1 2 4 4 3 3 2 3 4 5 2 1 3 2 4 3 4 3
14 15 17 18 19 21 23 26 24 16 1 2 3 5 4 3 4 2 1 2 2 6 2 5 3 2 2 3 1 2 3 6 4 5 6 2 1 3 2 3 3 6 5 7 4 3 2
14 16 19 21 20 21 23 25 25 15 3 5 1 4 0 3 1 1 2 2 5 6 4 5 3 4 2 3 3 3 3 4 2 5 3 5 3 3 3 5 3 4 6 3 3 4 5
13 16 20 22 20 21 22 25 27 17 5 1 4 2 2 1 3 4 2 4 7 3 2 3 3 1 3 3 3 3 3 2 3 5 3 4 3 3 4 2 4 2 4 5 6 3 4
13 17 20 22 21 22 22 23 26 21 4 1 3 1 2 3 2 4 5 5 5 4 1 1 2 2 3 2 3 4 3 2 1 1 3 4 2 3 3 2 2 3 1 4 7 2 3
14 17 20 20 20 22 23 24 25 23 7 1 2 2 2 1 1 2 4 1 2 2 2 1 2 1 2 2 1 1 1 2 1 1 1 5 4 1 2 0 3 1 5 4 3 3 4
12 16 19 20 21 21 22 25 26 26 11 1 1 3 3 0 1 5 4 3 2 1 3 3 2 1 2 3 2 1 1 1 1 3 0 3 3 2 1 4 6 2 0 4 3 3 5
12 15 18 19 20 22 23 24 26 27 13 1 3 2 2 3 4 2 2 3 2 1 2 1 2 3 2 3 3 4 5 4 3 2 3 1 4 3 2 2 1 1 2 4 4 5 1
12 15 16 17 19 21 22 24 26 27 15 1 2 1 3 1 3 2 2 3 2 2 2 1 2 2 3 4 3 2 3 2 2 1 3 4 0 3 5 3 3 3 4 4 4 3 6
12 15 16 17 17 19 21 22 24 26 16 3 3 3 4 4 1 4 2 0 2 1 2 1 1 1 1 3 3 1 3 3 4 2 4 2 2 5 6 3 4 4 4 5 4 3 4
14 14 15 16 18 19 20 20 21 22 17 3 3 1 3 3 3 3 1 1 0 1 1 1 2 1 3 2 1 0 0 2 2 4 3 2 2 1 3 3 2 4 5 8 9 6 7
14 15 15 15 17 19 19 19 19 18 14 5 2 2 1 1 1 1 3 2 2 1 2 2 1 1 1 2 4 5 5 4 2 2 2 4 1 2 2 2 4 5 7 8 8 3 8
14 16 16 15 17 17 17 17 17 16 10 4 3 2 2 1 1 1 3 2 1 2 1 1 1 1 2 3 3 2 2 3 4 6 5 3 4 2 3 3 5 6 8 10 5 5 7
16 15 16 16 16 16 13 13 14 14 11 4 2 4 3 3 1 4 4 5 5 3 3 1 1 1 1 3 3 3 1 1 4 1 3 6 5 2 3 3 1 4 3 4 9 5 8
18 17 16 17 16 15 11 9 11 10 9 5 2 1 3 2 2 3 4 3 2 1 2 2 2 2 1 3 2 3 3 1 1 3 3 0 4 2 2 3 6 2 2 3 4 3 0
20 20 18 17 17 12 9 8 8 8 7 3 3 2 2 3 4 0 2 3 4 3 2 2 2 2 4 2 2 3 4 4 3 1 4 3 4 3 2 3 6 2 2 1 1 4 2
23 21 21 18 18 13 7 7 6 7 6 4 0 2 3 1 3 3 3 4 4 1 2 1 3 2 2 3 2 4 4 2 3 5 4 3 1 4 3 3 7 4 3 2 2 3 1
26 24 23 21 20 14 10 8 6 6 6 3 2 1 3 2 4 3 2 2 1 1 3 2 3 0 2 3 4 4 4 4 1 3 5 6 6 4 3 2 7 3 1 1 3 2 2
30 28 26 24 21 17 12 10 8 6 5 4 3 4 3 4 4 3 5 6 4 3 4 1 2 2 4 3 2 2 3 1 3 3 1 3 5 4 7 5 2 1 2 1 2 2 2
Wind_Direction
28 27 18 15 4 356 351 332 302 301 328 351 13 22 36 41 31 21 6 22 25 19 276 193 172 157 146 116 256 330 323 216 204 198 203 186 145 148 179 175 122 193 169 61 350 68 82
23 25 24 15 8 -0 354 333 298 289 290 301 318 342 21 43 36 37 36 53 56 66 60 132 164 159 134 198 279 331 7 169 187 184 193 203 192 189 153 187 162 185 98 64 5 27 61
18 22 20 14 8 1 354 339 326 304 287 289 297 311 328 12 43 37 48 55 26 58 86 83 146 149 84 240 333 2 50 157 166 192 181 223 160 125 134 138 152 124 94 37 22 339 25
14 15 15 10 5 2 356 347 323 323 297 288 286 294 305 305 254 322 359 21 17 26 34 53 72 200 245 247 251 295 178 143 191 204 240 240 240 275 166 133 35 84 58 122 306 59 331
15 11 12 8 2 1 357 352 341 307 311 292 291 286 292 292 291 288 282 305 324 334 349 36 37 11 270 300 233 266 197 156 169 207 234 285 148 99 45 108 60 18 162 186 227 68 60
19 13 10 10 4 357 355 355 350 332 294 279 284 290 291 271 273 284 314 297 321 331 50 188 244 302 277 228 168 165 162 152 147 127 230 138 48 78 48 88 177 155 117 244 193 206 68
20 16 13 11 3 358 358 353 354 340 299 271 277 283 286 264 254 258 287 33 22 359 148 212 292 266 291 93 124 139 151 150 105 114 144 27 82 167 192 170 147 126 113 146 235 6 158
20 15 12 9 4 0 356 356 354 347 325 283 279 282 282 268 232 253 212 104 173 165 346 179 255 262 250 251 73 55 147 137 114 144 126 38 113 176 120 101 109 112 116 166 9 69 138
18 12 13 12 11 5 357 357 355 351 334 321 300 289 279 246 220 208 216 138 147 172 147 296 245 323 289 142 176 156 140 191 124 114 99 131 167 181 129 108 94 46 141 169 145 71 67
12 10 12 11 13 8 3 360 357 352 350 350 330 311 228 181 169 197 216 163 176 174 86 325 283 251 155 145 53 166 177 132 34 138 120 91 313 130 95 92 81 138 193 138 121 95 217
5 6 3 11 11 9 9 2 359 356 5 68 18 333 181 188 9 213 144 166 161 152 57 315 317 148 72 136 153 2 59 40 123 88 91 296 22 67 76 94 349 144 100 94 82 96 66
356 -0 358 3 7 8 7 8 2 2 311 134 55 19 168 181 256 274 186 161 131 46 311 343 314 354 85 12 63 107 68 49 137 79 34 68 12 53 75 48 33 154 79 48 57 78 26
350 354 354 356 1 7 6 10 9 8 356 227 318 16 211 170 158 211 158 48 41 87 331 324 336 17 35 24 50 63 43 31 116 81 6 17 355 349 40 74 23 69 65 15 9 8 216
350 351 351 355 2 4 10 10 9 9 14 203 244 306 359 118 135 135 65 51 73 195 226 311 309 313 67 359 34 35 94 69 33 78 106 139 330 12 355 56 177 73 137 147 192 186 264
351 352 354 358 1 3 6 12 9 9 358 150 165 116 18 18 137 146 76 48 177 211 221 326 353 34 18 54 116 77 35 160 199 162 125 136 19 330 39 1 71 178 125 143 106 19 44
350 351 354 357 2 3 5 6 8 9 13 172 204 136 25 22 167 2 77 95 306 263 330 266 131 157 159 338 66 96 189 342 6 50 109 189 96 5 321 61 41 188 153 75 0 169 248
350 350 353 356 358 3 6 3 4 5 8 175 174 62 9 19 89 50 105 173 227 350 33 321 293 146 142 149 122 98 163 30 40 321 66 144 101 266 8 206 183 132 151 51 115 130 174
343 349 350 354 355 357 360 4 3 4 8 121 105 28 10 150 43 25 103 185 268 244 67 31 16 327 282 183 143 170 197 184 187 193 150 185 124 143 211 295 296 261 212 157 129 214 98
336 341 348 349 350 351 355 358 1 4 5 67 95 257 357 188 81 15 299 330 318 341 336 57 103 115 18 353 319 182 185 116 40 149 158 179 101 59 356 359 353 221 199 130 108 91 201
325 334 338 341 343 345 348 354 356 360 5 354 78 23 338 55 357 123 143 121 325 298 306 290 256 144 101 39 41 315 352 357 2 31 74 100 130 173 188 186 131 195 198 188 146 136 182
315 325 332 334 337 341 343 349 356 356 359 357 24 176 184 331 1 20 -0 188 206 304 209 290 337 63 156 137 352 98 63 342 31 356 38 73 228 89 277 252 219 220 187 182 199 191 183
306 314 324 328 333 336 339 345 350 357 355 63 97 129 15 159 239 95 358 305 296 250 195 269 242 218 225 204 200 192 160 196 223 41 54 3 277 89 302 24 233 265 245 222 233 249 275
294 306 318 325 330 333 333 337 346 358 2 85 112 76 90 287 100 88 204 176 260 1 244 263 232 140 248 243 188 205 203 149 168 163 164 135 138 108 261 315 297 286 226 203 188 201 185
287 300 310 318 325 329 329 339 351 1 15 18 120 117 92 276 215 213 201 184 193 198 218 316 142 250 349 53 64 66 75 204 162 158 156 147 135 146 235 341 281 243 154 168 205 225 215
280 289 299 306 315 324 325 335 346 358 9 30 11 110 127 257 218 282 230 220 127 135 199 223 203 176 95 58 5 339 329 306 208 34 231 91 127 154 197 214 296 331 75 129 163 315 136
272 279 288 297 303 318 313 330 341 344 353 25 51 53 81 120 247 54 170 192 198 199 316 195 102 134 72 86 89 245 237 236 233 180 52 70 63 127 128 192 232 264 285 288 186 314 7
266 271 278 286 291 302 283 299 330 335 342 355 20 60 91 166 274 136 203 198 140 112 175 257 175 137 59 128 186 210 249 197 240 191 167 122 100 201 188 240 285 245 282 307 123 255 256
258 263 268 274 280 284 263 271 286 309 319 304 245 224 146 177 274 195 222 157 46 165 169 186 71 293 67 170 171 218 197 222 248 164 182 172 154 194 128 183 271 355 15 164 209 207 168
253 255 259 262 268 273 259 251 261 278 290 289 247 210 210 166 239 236 234 237 217 220 157 227 282 176 184 120 200 131 206 195 171 239 155 229 190 182 185 216 228 235 142 179 179 203 180